HZA42 VNKT-VQPR

Flight info

Callsign HZA42
Flight time N/A
Altitude 35000
Route IGRIS1D KIMTI G348 SUBSU SUBSU1
Aircraft A346/H-SDFGHIJ2J4J5M1RWXYZ/LB1D1

Departure

Time 2026-05-06 19:56
Airport Tribhuvan International Airport (VNKT)

Arrival

Time N/A
Airport Paro International Airport (VQPR)
Time Latitude Longitude Altitude Speed Heading
2026-05-06 19:31 27.70028 85.35871 4383 ft 0 kts 291°
2026-05-06 19:47 27.70026 85.35878 4364 ft 0 kts 291°
2026-05-06 19:47 27.70017 85.35905 4361 ft 0 kts 291°
2026-05-06 19:47 27.70012 85.35917 4361 ft 0 kts 291°
2026-05-06 19:47 27.70006 85.35935 4361 ft 0 kts 291°
2026-05-06 19:48 27.69997 85.35961 4361 ft 0 kts 291°
2026-05-06 19:48 27.69996 85.35964 4361 ft 0 kts 291°
2026-05-06 19:50 27.69997 85.35960 4361 ft 1 kts 291°
2026-05-06 19:50 27.70002 85.35945 4361 ft 3 kts 291°
2026-05-06 19:50 27.70007 85.35921 4361 ft 4 kts 276°
2026-05-06 19:51 27.69998 85.35890 4361 ft 5 kts 232°
2026-05-06 19:51 27.69954 85.35861 4370 ft 10 kts 193°
2026-05-06 19:51 27.69872 85.35845 4372 ft 14 kts 190°
2026-05-06 19:51 27.69758 85.35823 4371 ft 19 kts 189°
2026-05-06 19:52 27.69626 85.35778 4365 ft 21 kts 200°
2026-05-06 19:52 27.69477 85.35713 4360 ft 25 kts 201°
2026-05-06 19:52 27.69309 85.35636 4351 ft 27 kts 202°
2026-05-06 19:52 27.69166 85.35570 4356 ft 15 kts 202°
2026-05-06 19:53 27.69087 85.35569 4349 ft 12 kts 140°
2026-05-06 19:53 27.69011 85.35616 4344 ft 15 kts 188°
2026-05-06 19:53 27.68902 85.35571 4348 ft 19 kts 202°
2026-05-06 19:53 27.68769 85.35510 4342 ft 23 kts 202°
2026-05-06 19:54 27.68619 85.35433 4343 ft 23 kts 195°
2026-05-06 19:54 27.68487 85.35376 4345 ft 13 kts 233°
2026-05-06 19:54 27.68441 85.35319 4338 ft 5 kts 195°
2026-05-06 19:54 27.68425 85.35329 4336 ft 2 kts 86°
2026-05-06 19:55 27.68435 85.35346 4341 ft 3 kts 46°
2026-05-06 19:55 27.68452 85.35364 4333 ft 3 kts 33°
2026-05-06 19:55 27.68473 85.35376 4335 ft 4 kts 22°
2026-05-06 19:55 27.68611 85.35439 4337 ft 52 kts 21°
2026-05-06 19:56 27.69157 85.35685 4350 ft 114 kts 22°
2026-05-06 19:56 27.70068 85.36099 4382 ft 166 kts 22°
2026-05-06 19:56 27.71236 85.36630 4683 ft 189 kts 22°
2026-05-06 19:56 27.72441 85.37212 5354 ft 192 kts 33°
2026-05-06 19:57 27.73393 85.38250 6026 ft 191 kts 57°
2026-05-06 19:57 27.73927 85.39630 6570 ft 197 kts 78°
2026-05-06 19:57 27.73995 85.41218 7001 ft 209 kts 93°
2026-05-06 19:57 27.73946 85.42934 7336 ft 226 kts 94°
2026-05-06 19:58 27.73512 85.44700 7715 ft 244 kts 117°
2026-05-06 19:58 27.72392 85.46212 8234 ft 259 kts 143°
2026-05-06 19:58 27.70797 85.47166 9081 ft 263 kts 156°
2026-05-06 19:58 27.69063 85.47988 9697 ft 279 kts 157°
2026-05-06 19:59 27.67246 85.48924 10275 ft 293 kts 149°
2026-05-06 19:59 27.65550 85.50301 10796 ft 310 kts 137°
2026-05-06 19:59 27.64078 85.52170 11279 ft 328 kts 124°
2026-05-06 19:59 27.62988 85.54440 11979 ft 337 kts 111°
2026-05-06 20:00 27.62245 85.56969 12901 ft 341 kts 107°
2026-05-06 20:00 27.61565 85.59559 13851 ft 347 kts 106°
2026-05-06 20:00 27.60882 85.62192 14656 ft 352 kts 107°
2026-05-06 20:00 27.60180 85.64869 15486 ft 358 kts 107°
2026-05-06 20:01 27.59459 85.67586 16300 ft 363 kts 107°
2026-05-06 20:01 27.58582 85.70278 17096 ft 368 kts 115°
2026-05-06 20:01 27.57474 85.72902 17946 ft 372 kts 117°
2026-05-06 20:01 27.56319 85.75502 18708 ft 377 kts 118°
2026-05-06 20:02 27.55131 85.78170 19415 ft 382 kts 118°
2026-05-06 20:02 27.53931 85.80876 20124 ft 387 kts 118°
2026-05-06 20:02 27.52732 85.83619 20796 ft 393 kts 116°
2026-05-06 20:02 27.51761 85.86534 21520 ft 400 kts 109°
2026-05-06 20:03 27.51151 85.89620 22230 ft 407 kts 101°
2026-05-06 20:03 27.50896 85.92837 22910 ft 415 kts 95°
2026-05-06 20:03 27.50771 85.96107 23273 ft 429 kts 94°
2026-05-06 20:03 27.50664 85.99538 23574 ft 444 kts 94°
2026-05-06 20:04 27.50550 86.03095 23808 ft 459 kts 95°
2026-05-06 20:04 27.50423 86.06741 24027 ft 472 kts 95°
2026-05-06 20:04 27.50287 86.10486 24323 ft 483 kts 95°
2026-05-06 20:04 27.50144 86.14299 24791 ft 488 kts 95°
2026-05-06 20:05 27.49998 86.18143 25285 ft 493 kts 95°
2026-05-06 20:05 27.49837 86.22027 25778 ft 498 kts 96°
2026-05-06 20:05 27.49532 86.25929 26257 ft 501 kts 99°
2026-05-06 20:05 27.49038 86.29833 26724 ft 504 kts 103°
2026-05-06 20:06 27.48361 86.33720 27171 ft 508 kts 105°
2026-05-06 20:06 27.47868 86.36308 27515 ft 510 kts 106°
2026-05-06 20:06 27.47107 86.40237 27982 ft 515 kts 106°
2026-05-06 20:06 27.46086 86.45486 28645 ft 519 kts 106°
2026-05-06 20:07 27.45318 86.49453 29348 ft 518 kts 106°
2026-05-06 20:07 27.44799 86.52139 29867 ft 517 kts 107°
2026-05-06 20:07 27.44552 86.53423 30095 ft 517 kts 107°